TimeEDT,TemperatureF,Dew PointF,Humidity,Sea Level PressureIn,VisibilityMPH,Wind Direction,Wind SpeedMPH,Gust SpeedMPH,PrecipitationIn,Events,Conditions,WindDirDegrees,DateUTC
12:53 AM,50.0,48.9,96,29.95,4.0,NE,11.5,-,0.00,,Light Drizzle,50,2012-10-29 04:53:00
1:53 AM,50.0,48.9,96,29.94,5.0,NE,15.0,18.4,0.01,,Light Drizzle,40,2012-10-29 05:53:00
2:53 AM,50.0,48.9,96,29.91,8.0,NE,9.2,-,0.00,,Overcast,40,2012-10-29 06:53:00
3:53 AM,50.0,48.9,96,29.89,10.0,NNE,6.9,-,N/A,,Overcast,30,2012-10-29 07:53:00
4:53 AM,51.1,50.0,96,29.89,6.0,ENE,8.1,-,N/A,,Overcast,60,2012-10-29 08:53:00
5:53 AM,51.1,51.1,100,29.87,5.0,NE,9.2,-,N/A,,Overcast,50,2012-10-29 09:53:00
6:42 AM,51.8,51.8,100,29.87,10.0,NE,15.0,-,0.01,,Overcast,50,2012-10-29 10:42:00
6:53 AM,52.0,51.1,97,29.87,10.0,ENE,15.0,-,0.01,,Overcast,60,2012-10-29 10:53:00
7:36 AM,51.8,51.8,100,29.88,2.0,NE,11.5,-,N/A,,Overcast,40,2012-10-29 11:36:00
7:46 AM,51.8,51.8,100,29.88,2.0,NNE,9.2,-,0.00,,Light Drizzle,30,2012-10-29 11:46:00
7:53 AM,52.0,51.1,97,29.88,1.5,NNE,8.1,-,0.00,,Light Drizzle,30,2012-10-29 11:53:00
8:15 AM,51.8,51.8,100,29.88,1.5,NNE,9.2,-,N/A,,Light Drizzle,30,2012-10-29 12:15:00
8:53 AM,52.0,52.0,100,29.88,1.5,NE,10.4,-,0.03,Rain,Light Rain,40,2012-10-29 12:53:00
9:53 AM,54.0,53.1,97,29.86,1.8,NE,13.8,19.6,0.01,,Overcast,50,2012-10-29 13:53:00
10:00 AM,53.6,53.6,100,29.86,2.0,NE,11.5,-,N/A,,Overcast,50,2012-10-29 14:00:00
10:31 AM,55.4,53.6,94,29.86,5.0,NE,11.5,-,0.01,,Overcast,40,2012-10-29 14:31:00
10:53 AM,55.0,53.1,93,29.85,10.0,NE,10.4,-,0.01,,Overcast,50,2012-10-29 14:53:00
11:53 AM,57.0,52.0,83,29.84,10.0,ENE,13.8,-,N/A,,Overcast,70,2012-10-29 15:53:00
12:53 PM,57.0,52.0,83,29.83,6.0,ENE,13.8,25.3,0.00,,Light Drizzle,60,2012-10-29 16:53:00
1:53 PM,57.9,52.0,81,29.81,10.0,ENE,13.8,19.6,0.00,,Overcast,70,2012-10-29 17:53:00
2:53 PM,59.0,53.1,81,29.79,10.0,ENE,13.8,19.6,N/A,,Overcast,60,2012-10-29 18:53:00
3:53 PM,59.0,53.1,81,29.78,10.0,ENE,15.0,29.9,N/A,,Overcast,60,2012-10-29 19:53:00
4:53 PM,59.0,53.1,81,29.78,10.0,ENE,17.3,27.6,N/A,,Overcast,60,2012-10-29 20:53:00
5:53 PM,59.0,54.0,83,29.77,8.0,ENE,12.7,24.2,0.00,,Light Drizzle,70,2012-10-29 21:53:00
6:21 PM,57.2,55.4,94,29.77,7.0,ENE,13.8,20.7,0.00,,Light Drizzle,60,2012-10-29 22:21:00
6:53 PM,57.9,55.0,90,29.76,7.0,ENE,11.5,21.9,0.00,,Light Drizzle,60,2012-10-29 22:53:00
7:53 PM,57.0,55.0,93,29.76,6.0,East,17.3,25.3,0.00,,Light Drizzle,80,2012-10-29 23:53:00
8:53 PM,57.0,55.0,93,29.74,5.0,ENE,13.8,24.2,0.00,Rain,Light Rain,70,2012-10-30 00:53:00
9:28 PM,57.2,55.4,94,29.74,2.5,ENE,15.0,24.2,0.00,Rain,Light Rain,70,2012-10-30 01:28:00
9:53 PM,57.0,55.0,93,29.74,3.0,East,18.4,26.5,0.00,,Light Drizzle,80,2012-10-30 01:53:00
10:53 PM,57.0,55.0,93,29.73,5.0,East,17.3,33.4,0.01,Rain,Light Rain,80,2012-10-30 02:53:00
11:53 PM,57.0,55.0,93,29.71,6.0,East,19.6,29.9,0.00,Rain,Light Rain,90,2012-10-30 03:53:00